Location: Calgary
(51.0833°N, 114.0833°W)
Time: 05:15:21
(UTC-07:00)

ISS - Visible Passes

Search period start: 19 December 2018 00:00
Search period end: 29 December 2018 00:00
Orbit: 401 x 408 km, 51.6° (Epoch: 20 December)

Date Brightness Start Highest point End Pass type
(mag) Time Alt. Az. Time Alt. Az. Time Alt. Az.
23 Dec -0.7 07:30:45 10° S 07:33:01 17° SE 07:35:16 10° E visible
24 Dec -0.4 06:40:04 10° SSE 06:41:01 11° SE 06:41:59 10° ESE visible
25 Dec -1.9 07:21:47 10° SSW 07:24:43 30° SSE 07:27:40 10° E visible
26 Dec -1.3 06:30:08 10° SSW 06:32:37 20° SE 06:35:08 10° E visible
27 Dec -0.9 05:40:11 13° SSE 05:40:35 13° SE 05:42:12 10° ESE visible
27 Dec -3.0 07:13:18 10° SW 07:16:30 51° SSE 07:19:42 10° E visible
28 Dec -2.4 06:23:15 27° S 06:24:17 35° SSE 06:27:20 10° E visible
28 Dec -3.8 07:57:19 10° W 08:00:37 88° N 08:03:54 10° E visible
